STARLINK-1608 (46146 NORAD) Tracking and Keplerian Element Data

This shows tracking and keplerian element data for the satellite.

Feedback or suggestion? Click here.




ElementValue
Catalog46146
NameSTARLINK-1608
Epoch Orbit1711
Epoch Day339.16667824
Epoch Year2020
RAAN302.6643
Inclination52.9991
Eccentricity0.0001719
Argument of Perigee67.9519
Mean Anonmoly276.7505
Mean Motion15.05588305
Decay Rate-0.00017672
L11 46146U 20057AF 20339.16667824 -.00017672 00000-0 -11964-2 0 9990
L22 46146 52.9991 302.6643 0001719 67.9519 276.7505 15.05588305 17119

Live tracking and technical data element details for STARLINK-1608 (NORAD 46146). STARLINK-1608 can be tracked NOW for your location showing map with azimuth and elevation plus other details from your city location.

Track the satellite on the map from your city or location and see movement details for azimuth, elevation, latitude, longitude, range, height, and movement on the map or in text.







IsCatalogInMostPopularTable: catalog: 46146, numindb: 21
Update: records affected: 1



GetName: 46146 STARLINK-1608

Hit Count: updated at: Sat, 05 Dec 2020 05:11:49 GMT